Weather Roundup
Issued by NWS Chicago, IL

Home | Current Version | Previous Version | Text Only | Print | Product List | Glossary Off
Versions: 1 2 3 4 5 6 7 8 9 10 11 12 13 14 15 16 17 18 19 20 21 22 23 24 25 26 27 28 29 30 31 32 33 34 35 36 37 38 39 40 41 42 43 44 45 46 47 48 49 50

000
NZUS59 KLOT 301221
HRRLOT

CHICAGO AREA WEATHER ROUNDUP
NATIONAL WEATHER SERVICE CHICAGO/ROMEOVILLE IL
700 AM CDT TUE JUN 30 2015

NOTE: "FAIR" INDICATES FEW OR NO CLOUDS BELOW 12,000 FEET WITH NO
SIGNIFICANT WEATHER AND/OR OBSTRUCTIONS TO VISIBILITY.

* THESE STATIONS ARE NOT UNDER NWS QUALITY CONTROL. THEY ALSO MAY NOT
  REPORT WEATHER SUCH AS PRECIPITATION OR FOG.

ILZ005-006-012>014-019>023-301300-
NORTHEAST ILLINOIS

CITY           SKY/WX    TMP DP  RH WIND       PRES   REMARKS
OHARE          MOSUNNY   63  60  90 NW6       29.79S
6HR MIN TEMP:  62; 6HR MAX TEMP:  66; 6HR PCP:  0.17;

MIDWAY         PTSUNNY   66  62  87 W6        29.80R
6HR MIN TEMP:  65; 6HR MAX TEMP:  68;

AURORA         SUNNY     62  59  90 W3        29.82R FOG
6HR MIN TEMP:  60; 6HR MAX TEMP:  66; 6HR PCP:  0.02;

LANSING*       MOSUNNY   64  60  89 W5        29.81R
JOLIET*        SUNNY     64  62  94 CALM      29.82R
WAUKEGAN       SUNNY     61  59  93 CALM      29.79R FOG
6HR MIN TEMP:  59; 6HR MAX TEMP:  61;

DUPAGE AIRPORT SUNNY     62  60  93 W3        29.81R
6HR MIN TEMP:  61; 6HR MAX TEMP:  66; 6HR PCP:  0.01;

WHEELING       PTSUNNY   63  59  87 VRB3      29.80S
6HR MIN TEMP:  62; 6HR MAX TEMP:  67; 6HR PCP: TRACE;

KANKAKEE*      MOSUNNY   64  63  96 W6        29.83R
MORRIS*        SUNNY     63  62  95 W6        29.79R
LEWIS AIRPORT* SUNNY     62  62  98 W3        29.82R
NORTHERLY IS     N/A     66  59  78 W7          N/A
$$

WIZ051-052-058>065-066-070>072-301300-
SOUTHEAST WISCONSIN

CITY           SKY/WX    TMP DP  RH WIND       PRES   REMARKS
MILWAUKEE      MOSUNNY   63  57  81 NW7       29.78R
6HR MIN TEMP:  62; 6HR MAX TEMP:  65;

KENOSHA*       SUNNY     61  58  90 NW5       29.80R
RACINE*        SUNNY     62  59  90 W7        29.80R
BURLINGTON     SUNNY     58  57  96 NW3       29.80R
WAUKESHA       PTSUNNY   59  57  94 W6        29.81R FOG
WEST BEND      CLOUDY    59  57  94 NW6       29.80R FOG
$$

INZ001>003-010>013-019-020-301300-
NORTHWEST INDIANA

CITY           SKY/WX    TMP DP  RH WIND       PRES   REMARKS
GARY*          MOSUNNY  N/A N/A N/A W7        29.80R
MICHIGAN CITY* NOT AVBL
RENSSELAER*    NOT AVBL
VALPARAISO     PTSUNNY   64  63  96 W6        29.81R
$$

LMZ740>746-301300-
SOUTHERN LAKE MICHIGAN

STATION/POSITION TIME  SKY/WX   TEMP WIND        PRES    VSBY
                                AIR  DIR/SP/G
                 (UTC)          (F)  (DEG/KT/KT) (MB)    (MI)
HARRISON CRIB    1200            64  290/  8/  9   N/A
BURNHAM HARBOR   1200            66  260/  8/  9   N/A
CALUMET HARBOR   1100            64  270/  2/  4   N/A
BURNS HARBOR     1100            65  220/  6/  8 1009.1R
MICHIGAN CITY    1200            64  200/  7/  8   N/A
$$

ABBREVIATIONS USED IN REMARKS
   TC - TEMPERATURE IN CELSIUS
  WCI - WIND CHILL INDEX
   HX - HEAT INDEX
  VSB - VISIBILITY
$$



USA.gov is the U.S. government's official web portal to all federal, state and local government web resources and services.